Weather in Durgapur

India     23°31′56″N   87°18′26″E
temp.,
°C
wind,
m/s
gust,
m/s
humid.,
%
clouds,
%
prec.,
mm/h
press.,
hPa
HPBL,
m
18 may, tue
tue1823:30+32s6115798 0.0 1004466
02:30+31s5116332 0.0 1002385
05:30+30s49645 0.0 1003303
08:30+37sw57375 0.0 1004985
11:30+42wsw46227 0.0 10033119
14:30+44sw471995 0.0 9993819
17:30+36ene233493 1.3 999106
20:30+35sw464085 0.5 1002211
19 may, wed
wed1923:30+34nne124472 0.6 100398
02:30+32nne355676 0.0 1002186
05:30+32wnw225883 0.0 1003103
08:30+36nnw234199 0.0 10041200
11:30+40wnw233099 0.0 10022410
14:30+42w1425100 0.0 9993320
17:30+41nne1226100 0.1 9981583
20:30+35ese6646100 0.1 1001403
20 may, thu
thu2023:30+31sse71169100 0.1 1003682
02:30+31sse6967100 0.0 1001559
05:30+31s5866100 0.0 1002381
08:30+35ssw574710 0.0 1003791
11:30+42wsw45270 0.0 10012829
14:30+44ssw162050 0.0 9983699
17:30+38ssw6929100 0.1 997475
20:30+34s4648100 0.7 1002570
21 may, fri
fri2123:30+31se5755100 1.6 1003413
02:30+30sse4874100 0.0 1001419
05:30+30s49665 0.0 1001395
08:30+36sw44440 0.0 10031078
11:30+40wnw23310 0.0 10012202
14:30+41nnw2328100 0.1 9982232
17:30+38se353543 0.8 997325
20:30+33ese5855100 0.2 1000403
22 may, sat
sat2223:30+32se5670100 0.2 1001785
02:30+30ese2375100 0.0 1000407
05:30+30ese2279100 0.0 1001251
08:30+35nw1246100 0.0 10021286
11:30+40w24260 0.0 10002853
14:30+42w45195 0.0 9983591
17:30+41wsw25190 0.0 9962721
20:30+38sse1223100 0.0 99878